Notices

What's New in latest Release from April 7th, 2021:

- Updated Glossary, including Speed of Maximum Gust, and Total Hourly Precipitation

- Updated national and regional climate services offices contacts and prices information

- Addition of station inventory lists for 1981-2010, 1971-2000, and 1961-1990 Normals.

If you haven't already, please take our survey and provide feedback about our website: https://eccc.sondage-survey.ca/f/LanguageSelection.aspx?s=442ca660-fcf1-47c0-95a9-59707d6fd709

Hourly Data Report for June 26, 2015

KELOWNA UBCO
BRITISH COLUMBIA

49°56'26.700" N
119°24'00.760" W
456.00 m
1123996
71644
VKU

Download Data

Hourly Data (June 2015)
Hourly Data Report for June 26, 2015
TIME
LST
Temp Definition
°C
Dew Point Definition
°C
Rel Hum Definition
%
Precip. Amount Definition
mm

Wind Dir Definition
10's deg

Wind Spd Definition
km/h
Visibility Definition
km
Stn Press Definition
kPa
Hmdx Definition


Wind Chill Definition


Weather Definition


00:00 22.0 10.1 47 0.0       96.49     LegendNANA
01:00 19.8 10.7 56 0.0       96.53     LegendNANA
02:00 18.5 10.5 60 0.0       96.56     LegendNANA
03:00 17.3 10.5 64 0.0       96.58     LegendNANA
04:00 16.7 10.2 66 0.0       96.61     LegendNANA
05:00 16.9 10.5 66 0.0       96.65     LegendNANA
06:00 20.2 11.9 59 0.0       96.68     LegendNANA
07:00 23.7 10.5 43 0.0       96.67 25   LegendNANA
08:00 26.0 9.5 35 0.0       96.65 27   LegendNANA
09:00 28.9 9.7 30 0.0       96.60 30   LegendNANA
10:00 29.3 7.8 26 0.0       96.56 30   LegendNANA
11:00 30.6 5.6 21 0.0       96.52 30   LegendNANA
12:00 31.1 4.1 18 0.0       96.46 30   LegendNANA
13:00 33.5 3.8 15 0.0       96.40 32   LegendNANA
14:00 34.4 5.0 16 0.0       96.34 34   LegendNANA
15:00 34.4 4.7 16 0.0       96.26 34   LegendNANA
16:00 34.4 4.6 16 0.0       96.20 34   LegendNANA
17:00 34.8 5.9 17 0.0       96.14 34   LegendNANA
18:00 33.7 7.3 20 0.0       96.10 34   LegendNANA
19:00 32.7 7.2 20 0.0       96.08 33   LegendNANA
20:00 30.5 6.5 22 0.0       96.08 30   LegendNANA
21:00 28.2 8.0 28 0.0       96.14 29   LegendNANA
22:00 27.5 8.3 30 0.0       96.17 28   LegendNANA
23:00 23.9 10.0 41 0.0       96.20 25   LegendNANA

Notes on Data Quality.

Legend

  • E = Estimated
  • M = Missing
  • NA = Not Available*
  • [empty] = Indicates an unobserved value
Date modified: